Home   Weather   Prescott   Past weeks

Flag for USA Past Weather in Prescott, Arizona, USA — Yesterday and Last 2 Weeks

Now
70 °F

Sunny.


Feels Like: 77 °F
Forecast: 53 / 70 °F
Wind: 9 mph from South

Location: Love Field

Current Time: Sep 27, 2016 at 5:06:31 PM

Latest Report: Sep 27, 2016 at 3:53 PM


Visibility: 10 mi

Pressure: 29.94 "Hg (24.76 "Hg at 1635m altitude)

Humidity: 41%

Dew Point: 45 °F

Location of PrescottLocation

Past Weather in Prescott — Graph

°F

Prescott Temperature Yesterday

Maximum temperature yesterday: 79 °F (at 4:53 PM)
Minimum temperature yesterday: 48 °F (at 5:53 AM)
Average temperature yesterday: 65 °F

High & Low Weather Summary for the Past Weeks

 TemperatureHumidityPressure
High87 °F (Sep 18, 2:53 PM)100% (Sep 20, 12:53 PM)30.28 "Hg (Sep 20, 12:53 PM)
Low42 °F (Sep 24, 6:53 AM)8% (Sep 15, 2:53 PM)29.67 "Hg (Sep 22, 7:53 PM)
Average64 °F45%29.95 "Hg
* Reported Sep 12 3:53 PM — Sep 27 3:53 PM, Prescott, Weather by CustomWeather, © 2016

Note: Actual official high and low records may vary slightly from our data, if they occured in-between our weather recording intervals... More about our weather records

Advertising

Prescott Weather History for the Previous 24 Hours

Scroll right to see more
 ConditionsComfort  
Time TempWeatherWind HumidityBarometerVisibility
3:53 PM
Tue, Sep 27
70 °FSunny.9 mph41%29.94 "Hg10 mi
2:53 PM69 °FSunny.8 mph44%29.93 "Hg10 mi
1:53 PM66 °FPartly sunny.13 mph50%29.99 "Hg10 mi
12:53 PM68 °FPartly sunny.13 mph45%30.00 "Hg10 mi
11:53 AM68 °FPartly sunny.8 mph47%30.02 "Hg10 mi
10:53 AM67 °FScattered clouds.10 mph49%30.03 "Hg10 mi
9:53 AM63 °FPartly sunny.12 mph58%30.05 "Hg10 mi
8:53 AM58 °FPartly sunny.3 mph84%30.06 "Hg10 mi
7:53 AM59 °FMostly cloudy.No wind75%30.04 "Hg10 mi
6:53 AM57 °FLight rain. Partly sunny.3 mph81%30.01 "Hg10 mi
5:53 AM59 °FLight rain. Overcast.No wind69%29.98 "Hg9 mi
4:53 AM58 °FPassing clouds.No wind65%29.96 "Hg10 mi
3:53 AM58 °FClear.No wind65%29.97 "Hg10 mi
2:53 AM62 °FPassing clouds.3 mph54%29.96 "Hg10 mi
1:53 AM59 °FPassing clouds.No wind62%29.98 "Hg10 mi
12:53 AM59 °FPassing clouds.No wind62%30.00 "Hg10 mi
11:53 PM
Mon, Sep 26
58 °FClear.3 mph62%30.01 "Hg10 mi
10:53 PM62 °FPassing clouds.No wind54%30.00 "Hg10 mi
9:53 PM65 °FPassing clouds.3 mph47%30.00 "Hg10 mi
8:53 PM65 °FPassing clouds.6 mph47%30.01 "Hg10 mi
7:53 PM65 °FPassing clouds.6 mph45%30.01 "Hg10 mi
6:53 PM69 °FClear.6 mph36%30.01 "Hg10 mi
5:53 PM76 °FSunny.6 mph19%29.99 "Hg10 mi
Weather by CustomWeather, © 2016

See weather overviewHow to use our weather pages